Presure
149 89 141 113 144 136 138 133 146 107 109 90 148 104 114 140 124 103 136 98 103 114 132 107 104 139 109 108 94 96 138 128 120 123 122 125 127 133 132 129 124 141 153
88 93 157 148 154 144 141 143 143 108 128 97 138 115 106 119 121 97 105 129 114 95 105 103 144 136 98 110 112 141 115 115 117 117 130 81 130 131 140 149 142 151 83
140 161 148 95 143 113 129 88 139 143 144 159 132 84 149 114 142 84 121 136 112 117 101 93 93 110 117 106 123 113 111 130 120 133 138 137 139 131 144 141 150 78 147
85 84 116 131 110 134 83 122 134 120 149 148 167 147 90 89 89 142 152 152 145 99 99 92 95 122 104 118 97 89 112 130 131 127 144 132 143 143 140 83 156 150 159
87 88 91 159 114 87 93 131 89 88 97 101 133 165 148 141 147 95 93 122 101 95 119 148 97 104 104 135 111 100 123 141 142 142 132 110 144 124 118 149 140 161 161
94 162 97 90 160 91 139 94 137 95 141 145 93 90 161 140 150 96 97 89 100 90 97 103 89 103 139 126 111 83 128 137 153 156 147 133 151 84 107 152 153 149 141
83 130 93 87 91 89 167 144 88 92 84 141 147 88 138 136 93 89 97 127 139 93 106 148 94 121 165 91 152 162 140 131 138 145 135 94 156 135 148 168 160 132 123
128 153 159 162 130 88 96 156 90 89 114 106 83 89 102 88 127 127 91 96 93 118 108 146 136 152 156 157 163 150 120 113 78 152 141 145 140 157 164 146 148 147 148
154 156 154 175 163 157 91 94 101 94 93 96 92 134 134 100 93 145 97 94 149 132 109 97 106 100 118 119 126 149 149 88 75 130 72 155 101 89 138 139 129 139 149
136 194 153 122 182 164 99 93 87 99 97 123 102 88 97 95 95 93 95 94 120 97 97 97 110 103 142 115 121 133 77 139 78 103 152 136 144 156 157 140 141 155 157
169 154 104 94 166 159 157 158 140 98 89 95 96 92 103 102 90 99 104 127 115 96 127 150 143 136 135 121 75 87 75 77 149 142 94 145 153 158 165 161 157 161 150
187 157 146 168 141 163 160 164 154 139 157 133 146 100 113 102 142 121 115 130 100 113 120 130 152 145 128 103 75 84 134 88 78 117 149 160 133 143 153 147 160 146 153
151 79 132 158 181 125 171 149 163 158 172 161 128 163 154 134 127 135 125 128 130 139 138 144 157 76 147 77 154 152 114 117 167 133 137 136 149 148 155 147 153 152 151
160 136 172 167 166 205 123 176 169 161 163 165 158 151 162 161 163 160 170 161 144 143 105 139 84 86 72 71 83 152 127 141 144 153 141 141 143 150 165 165 165 167 174
121 131 208 173 149 175 194 132 160 163 185 177 176 152 163 157 133 151 174 179 160 154 75 76 77 140 82 75 144 111 146 144 146 141 139 149 156 160 159 178 149 170 157
150 146 169 127 160 145 148 135 176 190 163 147 157 162 165 180 143 144 177 148 79 138 126 99 144 110 73 147 167 116 170 171 138 173 154 175 177 157 180 179 181 179 172
171 178 179 144 168 167 160 113 111 95 120 165 135 143 154 82 135 150 149 150 152 77 163 72 166 171 151 130 183 150 146 177 160 169 167 165 126 160 185 167 177 172 168
187 191 177 134 160 152 88 140 108 104 165 130 104 188 118 117 170 173 122 116 155 72 81 167 170 155 162 164 156 162 164 165 172 175 158 149 156 163 168 163 180 174 164
208 170 176 149 168 162 113 122 123 146 117 146 134 160 163 141 156 74 88 149 77 161 172 152 173 176 142 149 160 195 159 168 152 150 185 161 158 173 150 173 168 183 163
195 176 162 167 169 164 162 126 151 133 144 149 147 149 152 160 137 167 170 176 168 182 180 167 191 178 177 176 182 160 176 184 181 175 137 172 131 156 134 195 178 167 178
181 170 162 144 172 163 165 163 163 140 138 143 132 151 123 139 142 178 163 164 160 185 176 179 187 174 194 146 171 155 144 162 185 170 186 158 190 169 194 128 176 177 199
198 174 173 167 165 160 163 156 134 177 144 147 166 173 156 138 168 164 175 186 167 169 156 150 170 164 162 193 179 152 187 163 188 165 206 171 169 165 161 165 204 180 184
184 204 178 178 152 148 159 164 141 148 155 170 158 170 152 156 152 165 167 181 164 189 155 173 169 178 172 165 193 166 180 192 149 178 171 173 149 181 175 179 170 183 152
203 162 165 144 140 163 161 167 155 149 151 160 158 181 172 145 174 165 147 158 136 147 174 154 191 161 187 174 172 158 154 153 159 173 157 162 160 170 159 169 141 163 135
187 214 215 171 195 169 159 162 158 163 158 175 166 151 163 133 155 187 189 153 134 154 186 154 162 196 186 171 180 182 180 174 183 216 196 184 200 193 122 176 186 209 174
209 208 203 171 175 172 150 170 143 153 170 169 169 170 167 163 169 171 173 164 136 162 156 165 169 157 179 156 176 172 177 170 194 182 187 199 190 165 183 183 182 200 185
Wind_Speed
40 12 41 25 38 33 33 27 33 22 23 12 31 14 23 30 24 18 29 16 15 18 24 19 20 28 22 23 19 21 29 29 29 30 31 32 33 34 36 36 36 40 37
17 20 45 40 40 38 36 33 31 25 33 15 26 25 17 24 27 14 20 26 20 19 18 20 30 26 22 24 25 29 28 29 31 32 34 18 36 37 37 39 38 40 32
40 52 42 19 42 26 32 14 34 34 33 34 25 11 34 24 32 16 23 33 20 22 19 20 23 23 25 25 28 27 28 36 33 36 37 37 38 38 38 36 41 26 37
20 15 32 37 26 39 15 30 36 28 36 34 35 34 16 17 18 33 37 32 34 21 22 20 23 26 27 28 24 14 33 38 39 37 39 39 39 39 38 28 40 39 39
28 26 27 51 30 21 24 38 19 18 20 23 31 37 37 36 36 22 23 31 25 24 28 37 25 30 31 35 33 20 38 41 42 42 37 32 41 37 35 42 40 41 40
35 52 33 26 53 26 44 24 41 23 40 40 23 22 39 37 37 23 25 25 26 24 27 27 19 30 36 34 33 12 38 42 41 40 43 38 42 31 34 42 41 38 38
26 44 32 25 29 24 56 49 23 26 21 42 42 25 37 35 26 24 27 32 38 29 34 40 29 34 40 20 41 38 40 40 43 44 40 28 43 41 42 43 41 39 39
44 52 59 56 45 25 33 54 28 26 37 33 22 27 31 27 36 36 27 30 28 33 35 41 36 42 43 43 41 41 35 30 24 43 42 43 42 46 45 40 41 42 44
55 57 59 68 57 57 29 32 35 30 29 32 30 43 40 35 32 43 33 32 43 39 37 35 38 36 39 41 36 42 42 26 23 40 22 46 42 39 41 41 42 44 47
53 77 60 46 69 62 38 33 26 35 36 45 38 29 37 37 36 34 36 31 37 34 35 36 42 41 43 32 38 41 23 45 30 38 49 46 47 49 48 44 45 48 50
76 64 41 33 65 63 64 65 55 41 29 37 37 33 42 42 35 41 46 45 43 35 43 48 46 44 43 37 19 28 27 30 50 47 41 49 50 51 53 52 52 52 48
72 65 63 63 59 69 67 71 65 56 64 51 56 43 46 45 52 42 49 47 35 43 47 44 51 51 44 33 24 31 46 38 37 45 51 52 45 50 51 46 54 46 52
66 25 54 72 66 53 73 64 75 63 73 67 50 60 56 51 46 48 50 49 46 50 50 51 50 20 54 26 55 54 44 46 52 48 51 49 54 53 56 47 49 49 52
84 57 86 77 69 67 49 75 77 73 71 66 61 58 63 63 60 55 60 56 54 55 38 50 26 28 26 27 33 54 49 53 53 55 54 52 53 57 60 61 61 62 64
52 64 73 74 69 73 71 51 71 70 78 72 71 60 67 64 50 53 58 65 59 57 22 25 25 56 33 34 54 48 56 55 56 51 52 58 62 61 61 67 51 63 55
76 77 88 60 79 71 67 52 73 80 69 60 65 71 68 74 49 52 65 55 26 52 48 39 52 44 34 58 67 50 64 62 47 62 56 64 64 59 65 67 68 67 64
97 95 97 67 87 82 78 44 42 40 43 71 48 56 58 32 53 58 55 54 58 31 60 32 55 61 58 56 67 56 53 63 60 62 57 56 51 60 65 64 66 68 63
104 103 99 69 86 75 33 59 46 46 76 56 50 68 53 46 70 69 56 50 59 35 39 66 67 62 61 61 60 63 63 61 64 62 53 53 58 61 64 63 69 71 67
97 99 99 81 92 86 47 56 58 67 52 59 57 73 72 56 63 28 37 64 39 68 67 61 69 73 58 60 62 74 60 63 49 56 75 57 61 67 59 66 68 76 65
101 101 99 89 86 87 84 59 73 61 64 68 64 76 65 70 55 78 80 82 76 81 68 68 71 73 71 67 72 63 71 74 73 70 56 69 56 61 57 74 72 68 74
98 105 100 74 88 89 88 82 79 66 64 62 50 69 44 56 49 90 73 71 62 81 79 77 76 71 79 59 69 60 57 66 76 69 75 57 75 65 76 57 74 76 87
102 106 104 91 87 85 89 81 64 88 68 68 84 90 73 57 82 75 90 93 77 74 62 62 70 67 66 88 78 58 86 65 81 68 81 71 71 69 66 67 79 76 80
98 107 103 99 81 72 88 88 66 74 81 86 78 83 71 75 67 79 81 83 71 91 60 77 70 78 79 75 89 67 72 83 58 75 72 74 65 71 69 71 69 75 65
97 89 95 76 67 94 89 95 76 70 69 77 75 95 86 62 93 82 58 62 60 60 83 62 93 63 89 69 69 61 57 63 65 70 68 68 67 68 65 68 65 69 65
100 111 108 97 100 99 80 81 76 84 79 97 82 66 79 59 66 98 100 61 65 56 100 64 66 106 88 70 81 82 79 71 75 102 89 79 90 82 67 75 82 105 74
115 114 106 90 97 93 74 91 61 77 93 92 92 90 87 82 88 90 92 85 70 81 70 84 88 66 91 62 87 81 84 70 93 79 85 97 88 71 84 87 83 107 91
Wind_Direction
251 200 249 239 254 255 257 258 264 249 257 241 265 257 268 269 271 285 278 302 293 291 294 309 315 297 316 318 327 325 311 317 320 319 319 318 318 319 321 322 322 327 326
213 218 248 251 249 253 256 257 260 259 259 247 263 269 260 273 278 276 281 282 285 301 301 309 291 298 316 315 317 308 319 320 317 315 316 332 318 318 321 323 323 325 332
254 249 252 233 252 253 257 241 257 260 262 272 263 276 266 267 271 304 274 280 284 285 297 310 318 306 303 312 311 313 314 316 316 316 313 312 314 317 319 322 324 329 324
250 242 246 251 239 257 241 254 257 255 262 264 269 262 271 273 278 274 275 274 281 296 299 305 311 294 310 306 309 313 312 314 315 316 307 316 312 313 319 331 320 327 322
246 242 240 251 249 232 239 252 248 255 251 258 268 271 264 269 271 280 287 282 291 299 293 285 306 306 306 297 306 308 312 306 305 307 309 315 312 317 320 320 320 321 321
238 252 235 243 252 236 257 237 258 250 260 262 258 275 271 267 270 276 281 291 292 299 297 295 311 302 293 298 302 315 306 306 302 303 306 314 308 324 320 319 322 323 321
250 250 238 248 241 245 251 256 246 248 264 259 263 278 264 271 273 278 277 276 276 295 294 285 302 291 281 309 292 292 300 305 306 304 308 316 307 313 312 312 316 315 311
246 259 250 253 249 247 240 253 242 252 257 260 269 271 272 280 270 269 282 281 287 285 287 286 287 289 288 289 290 294 303 304 321 302 311 311 315 310 310 319 322 320 319
249 258 253 247 251 252 259 252 247 253 257 261 262 260 260 272 274 266 274 276 274 282 286 290 290 293 293 294 296 297 297 307 310 302 315 304 312 316 318 320 311 316 319
240 248 254 251 248 251 253 254 255 257 258 256 261 264 266 269 271 272 272 275 280 280 283 286 286 290 293 294 291 298 306 302 308 306 304 312 314 308 308 315 315 319 321
252 250 250 245 245 248 248 249 252 254 255 261 261 262 267 269 269 270 274 272 276 278 280 282 287 291 293 294 300 301 306 305 300 305 306 303 307 309 307 310 317 316 316
243 243 251 246 248 246 248 250 253 255 251 258 255 262 264 268 264 273 271 273 274 277 280 281 279 287 288 290 299 297 296 299 302 303 304 303 305 309 311 311 312 311 316
250 244 248 249 238 252 244 252 251 250 250 252 260 259 258 265 270 266 268 271 275 277 281 282 280 281 286 302 285 288 297 298 290 301 301 304 305 306 309 308 310 312 312
252 243 244 245 243 238 255 243 246 253 252 256 258 260 259 261 264 267 269 268 268 277 272 281 282 282 301 301 300 287 292 295 296 299 299 301 303 303 306 306 308 308 312
249 243 234 239 248 243 235 255 253 255 249 252 254 260 263 262 264 260 264 266 272 274 281 283 287 280 292 294 285 291 289 290 292 296 299 299 300 302 305 303 301 310 304
250 251 245 246 247 248 248 252 245 246 251 256 260 260 261 262 268 264 270 266 266 272 274 281 279 284 291 284 282 288 287 288 296 292 296 299 301 302 302 305 307 308 309
243 236 236 243 245 246 249 250 256 260 250 256 252 263 264 265 269 269 271 273 273 284 273 287 275 276 280 284 278 284 286 287 293 298 299 304 293 307 303 308 308 308 307
225 227 237 245 246 248 270 251 253 256 256 255 256 248 259 263 263 264 261 266 272 284 283 276 276 277 277 279 282 284 287 292 294 297 301 295 300 302 303 303 308 307 306
222 238 236 242 241 248 254 245 249 252 258 258 258 265 267 263 268 275 273 271 275 272 272 273 274 275 279 282 285 280 294 295 291 291 303 293 298 303 294 301 303 307 302
222 229 240 239 238 246 249 248 250 251 254 258 261 262 265 268 263 271 271 269 272 272 272 275 276 277 279 285 279 290 292 296 299 299 292 300 290 294 293 293 303 300 304
222 230 240 243 239 245 250 251 251 252 254 255 263 265 247 262 272 267 274 275 275 270 272 275 277 283 276 277 290 282 288 295 299 295 297 294 299 295 301 291 304 301 301
223 229 235 238 240 243 248 251 252 249 256 260 261 258 269 256 269 273 270 268 273 273 273 274 285 286 284 281 288 284 293 291 295 295 293 296 297 296 296 297 297 300 303
227 224 232 232 244 247 249 251 251 253 255 254 259 259 264 266 270 277 279 271 270 274 281 282 288 284 285 283 285 286 286 291 289 291 290 289 289 293 293 296 298 298 297
224 234 234 246 251 243 246 248 253 259 260 261 264 260 262 270 267 274 261 275 259 271 283 271 287 275 286 283 281 283 284 284 284 284 288 286 287 292 289 297 288 297 294
227 221 225 233 229 241 251 252 255 253 262 257 264 271 274 255 268 270 274 268 257 272 287 277 282 288 285 289 293 295 295 290 293 299 296 297 302 304 287 300 303 305 302
223 226 225 242 244 247 258 253 265 260 256 262 264 266 269 274 275 275 276 282 265 286 283 288 288 278 288 283 294 294 295 293 298 289 300 301 301 295 301 301 301 304 303